This is the latest recevied weather packets stored in our database for station/object KC8PTQ. If no packets are shown the sender has not sent any weather packets the latest 10 day(s).
| Time | Temp. | Humidity | Pressure | Rain* | Wind** | Luminosity | Snow |
|---|---|---|---|---|---|---|---|
| 1778205630 | 8.33° C | 71% | 1014.7 hPa | 0 mm | - | 0 W/m² | - |
| 1778205327 | 8.33° C | 72% | 1014.6 hPa | 0 mm | - | 0 W/m² | - |
| 1778205024 | 8.33° C | 73% | 1014.5 hPa | 0 mm | - | 0 W/m² | - |
| 1778204720 | 7.78° C | 71% | 1014.6 hPa | 0 mm | - | 0 W/m² | - |
| 1778204416 | 8.33° C | 71% | 1014.2 hPa | 0 mm | - | 0 W/m² | - |
| 1778204113 | 7.78° C | 64% | 1014.5 hPa | 0 mm | - | 0 W/m² | - |
| 1778203810 | 7.78° C | 64% | 1014.3 hPa | 0 mm | - | 0 W/m² | - |
| 1778203507 | 7.78° C | 63% | 1014.3 hPa | 0 mm | - | 0 W/m² | - |
| 1778203204 | 7.78° C | 66% | 1014.3 hPa | 0 mm | - | 0 W/m² | - |
| 1778202903 | 8.33° C | 62% | 1014.1 hPa | 0 mm | - | 0 W/m² | - |
| 1778202600 | 8.33° C | 59% | 1014.2 hPa | 0 mm | - | 0 W/m² | - |
| 1778202296 | 8.33° C | 58% | 1014.1 hPa | 0 mm | - | 0 W/m² | - |
| 1778201994 | 8.89° C | 58% | 1014.1 hPa | 0 mm | - | 0 W/m² | - |
| 1778201690 | 8.89° C | 57% | 1014.1 hPa | 0 mm | - | 0 W/m² | - |
| 1778201387 | 8.89° C | 56% | 1014.2 hPa | 0 mm | - | 0 W/m² | - |
| 1778201083 | 9.44° C | 57% | 1014 hPa | 0 mm | - | 0 W/m² | - |
| 1778200780 | 9.44° C | 57% | 1014.1 hPa | 0 mm | - | 1 W/m² | - |
| 1778200471 | 10° C | 57% | 1013.9 hPa | 0 mm | - | 1 W/m² | - |
| 1778200168 | 10° C | 50% | 1013.9 hPa | 0 mm | - | 2 W/m² | - |
| 1778199865 | 10.56° C | 52% | 1014 hPa | 0 mm | - | 3 W/m² | - |
| 1778199561 | 10.56° C | 50% | 1013.9 hPa | 0 mm | - | 4 W/m² | - |
| 1778199258 | 10.56° C | 53% | 1013.8 hPa | 0 mm | - | 6 W/m² | - |
| 1778198954 | 11.11° C | 53% | 1013.7 hPa | 0 mm | - | 7 W/m² | - |
| 1778198650 | 11.11° C | 49% | 1013.8 hPa | 0 mm | - | 9 W/m² | - |
| 1778198347 | 11.67° C | 50% | 1013.7 hPa | 0 mm | - | 11 W/m² | - |
* Rain latest hour (hover to see other rain measurements)
** Current wind speed in m/s (hover to see current wind gust speed)